Latest Coastal Weather Observations for Lake Macquarie - Cooranbong

IDN60701

Issued at 5:51 am EST Tuesday 26 May 2015 (issued every 10 minutes, with the page automatically refreshed every 10 minutes)

About coastal observations | Map of coastal stations | Coastal observations for NSW | Marine services | Other Formats
Station Details ID: 061412 Name: LAKE MACQUARIE AWS Lat: -33.09 Lon: 151.46 Height: 6.0 m
Data from the previous 72 hours. | See also: Recent months at Lake Macquarie - Cooranbong
Date/Time
EST
Temp

°C
Wind Pressure Rain
since 9am
mm
Weather Cloud Vis
km
Sea
Height
m
Swell
Dir
 
Speed
knots
Gust
knots
hPa Trend Height
m
Period
s
Dir
26/05:30am 5.3 CALM 0 0 1028.8 - 0.0 - - - - - - -
26/05:00am 5.8 CALM 0 0 1028.7 - 0.0 - - - - - - -
26/04:30am 6.0 CALM 0 0 1028.6 - 0.0 - - - - - - -
26/04:00am 6.1 CALM 0 0 1028.6 - 0.0 - - - - - - -
26/03:30am 6.4 CALM 0 0 1028.8 - 0.0 - - - - - - -
26/03:00am 6.1 CALM 0 0 1028.4 - 0.0 - - - - - - -
26/02:30am 6.8 CALM 0 0 1028.8 - 0.0 - - - - - - -
26/02:00am 7.2 CALM 0 0 1029.1 - 0.0 - - - - - - -
26/01:30am 7.3 CALM 0 0 1029.0 - 0.0 - - - - - - -
26/01:00am 7.7 CALM 0 0 1029.0 - 0.0 - - - - - - -
26/12:30am 7.9 CALM 0 0 1029.2 - 0.0 - - - - - - -
26/12:00am 8.1 CALM 0 0 1029.2 - 0.0 - - - - - - -
 
Date/Time
EST
Temp

°C
Wind Pressure Rain
since 9am
mm
Weather Cloud Vis
km
Sea
Height
m
Swell
Dir
 
Speed
knots
Gust
knots
hPa Trend Height
m
Period
s
Dir
25/11:30pm 8.3 CALM 0 0 1029.3 - 0.0 - - - - - - -
25/11:00pm 8.9 CALM 0 0 1029.4 - 0.0 - - - - - - -
25/10:30pm 9.3 CALM 0 0 1029.4 - 0.0 - - - - - - -
25/10:00pm 9.7 CALM 0 0 1029.7 - 0.0 - - - - - - -
25/09:30pm 10.1 CALM 0 0 1029.5 - 0.0 - - - - - - -
25/09:00pm 10.7 CALM 0 0 1029.6 - 0.0 - - - - - - -
25/08:30pm 11.1 CALM 0 0 1029.9 - 0.0 - - - - - - -
25/08:00pm 11.5 CALM 0 0 1029.9 - 0.0 - - - - - - -
25/07:30pm 11.6 CALM 0 0 1029.6 - 0.0 - - - - - - -
25/07:00pm 12.4 CALM 0 0 1029.4 - 0.0 - - - - - - -
25/06:30pm 12.7 CALM 0 1 1028.9 - 0.0 - - - - - - -
25/06:00pm 13.0 CALM 0 0 1028.4 - 0.0 - - - - - - -
25/05:30pm 13.6 CALM 0 0 1028.6 - 0.0 - - - - - - -
25/05:00pm 14.5 CALM 0 0 1028.5 - 0.0 - - - - - - -
25/04:30pm 15.9 N 1 2 1028.5 - 0.0 - - - - - - -
25/04:00pm 17.2 N 2 4 1028.4 - 0.0 - - - - - - -
25/03:30pm 18.8 NNE 3 5 1028.5 - 0.0 - - - - - - -
25/03:00pm 18.8 NNE 4 6 1028.5 - 0.0 - - - - - - -
25/02:30pm 19.3 NNE 4 7 1028.7 - 0.0 - - - - - - -
25/02:00pm 20.4 NE 3 5 1029.0 - 0.0 - - - - - - -
25/01:30pm 19.5 NNE 4 6 1029.2 - 0.0 - - - - - - -
25/01:00pm 18.8 NNE 3 5 1029.3 - 0.0 - - - - - - -
25/12:30pm 18.3 NNE 5 8 1029.6 - 0.0 - - - - - - -
25/12:00pm 18.9 ENE 3 6 1030.3 - 0.0 - - - - - - -
25/11:30am 18.3 N 2 3 1030.8 - 0.0 - - - - - - -
25/11:00am 17.8 ENE 1 3 1031.4 - 0.0 - - - - - - -
25/10:30am 16.9 N 1 2 1032.1 - 0.0 - - - - - - -
25/10:00am 14.4 CALM 0 0 1032.4 - 0.0 - - - - - - -
25/09:30am 12.8 CALM 0 0 1032.6 - 0.0 - - - - - - -
25/09:00am 11.1 CALM 0 0 1032.6 - 0.0 - - - - - - -
25/08:30am 9.3 CALM 0 0 1032.2 - 0.0 - - - - - - -
25/08:00am 7.9 CALM 0 0 1032.2 - 0.0 - - - - - - -
25/07:30am 6.9 CALM 0 0 1032.0 - 0.0 - - - - - - -
25/07:00am 6.7 CALM 0 0 1032.1 - 0.0 - - - - - - -
25/06:30am 7.0 CALM 0 0 1031.8 - 0.0 - - - - - - -
25/06:00am 6.8 CALM 0 0 1031.5 - 0.0 - - - - - - -
25/05:30am 6.8 CALM 0 0 1031.2 - 0.0 - - - - - - -
25/05:00am 6.6 CALM 0 0 1031.2 - 0.0 - - - - - - -
25/04:30am 6.6 CALM 0 0 1031.5 - 0.0 - - - - - - -
25/04:00am 6.5 NW 1 3 1031.5 - 0.0 - - - - - - -
25/03:30am 6.1 CALM 0 0 1031.6 - 0.0 - - - - - - -
25/03:00am 6.3 CALM 0 0 1031.5 - 0.0 - - - - - - -
25/02:30am 6.6 CALM 0 0 1031.7 - 0.0 - - - - - - -
25/02:00am 7.0 WSW 1 3 1031.8 - 0.0 - - - - - - -
25/01:30am 7.0 CALM 0 0 1031.8 - 0.0 - - - - - - -
25/01:00am 7.3 CALM 0 0 1032.0 - 0.0 - - - - - - -
25/12:30am 7.3 CALM 0 0 1032.4 - 0.0 - - - - - - -
25/12:00am 7.4 CALM 0 0 1032.4 - 0.0 - - - - - - -
 
Date/Time
EST
Temp

°C
Wind Pressure Rain
since 9am
mm
Weather Cloud Vis
km
Sea
Height
m
Swell
Dir
 
Speed
knots
Gust
knots
hPa Trend Height
m
Period
s
Dir
24/11:30pm 7.3 CALM 0 0 1032.4 - 0.0 - - - - - - -
24/11:00pm 7.3 CALM 0 0 1032.3 - 0.0 - - - - - - -
24/10:30pm 7.8 CALM 0 0 1032.2 - 0.0 - - - - - - -
24/10:00pm 8.0 CALM 0 0 1032.7 - 0.0 - - - - - - -
24/09:30pm 8.6 CALM 0 0 1032.9 - 0.0 - - - - - - -
24/09:00pm 8.3 CALM 0 0 1032.9 - 0.0 - - - - - - -
24/08:30pm 8.7 CALM 0 0 1032.6 - 0.0 - - - - - - -
24/08:00pm 9.2 CALM 0 0 1032.1 - 0.0 - - - - - - -
24/07:30pm 9.6 CALM 0 0 1032.0 - 0.0 - - - - - - -
24/07:00pm 10.1 CALM 0 0 1032.1 - 0.0 - - - - - - -
24/06:30pm 10.8 CALM 0 0 1032.0 - 0.0 - - - - - - -
24/06:00pm 11.4 CALM 0 0 1031.9 - 0.0 - - - - - - -
24/05:30pm 12.5 CALM 0 0 1031.7 - 0.0 - - - - - - -
24/05:00pm 13.6 CALM 0 0 1031.4 - 0.0 - - - - - - -
24/04:30pm 15.1 CALM 0 0 1031.0 - 0.0 - - - - - - -
24/04:00pm 17.4 SE 1 2 1030.8 - 0.0 - - - - - - -
24/03:30pm 17.8 SE 1 2 1031.0 - 0.0 - - - - - - -
24/03:00pm 17.7 SE 2 3 1030.9 - 0.0 - - - - - - -
24/02:30pm 17.6 SSE 3 5 1030.9 - 0.0 - - - - - - -
24/02:00pm 17.5 SSE 3 4 1030.7 - 0.0 - - - - - - -
24/01:30pm 17.6 SSE 3 5 1030.7 - 0.0 - - - - - - -
24/01:00pm 17.8 SSE 3 5 1030.8 - 0.0 - - - - - - -
24/12:30pm 18.2 SSW 3 5 1031.0 - 0.0 - - - - - - -
24/12:00pm 18.5 SSW 3 7 1031.3 - 0.0 - - - - - - -
24/11:30am 17.4 SSW 3 6 1031.7 - 0.0 - - - - - - -
24/11:00am 17.2 WSW 4 7 1032.0 - 0.0 - - - - - - -
24/10:30am 17.0 W 3 6 1032.4 - 0.0 - - - - - - -
24/10:00am 15.9 SW 3 7 1032.4 - 0.0 - - - - - - -
24/09:30am 14.5 WSW 2 5 1032.2 - 0.0 - - - - - - -
24/09:00am 11.9 SSW 1 3 1032.1 - 0.2 - - - - - - -
24/08:30am 11.1 CALM 0 2 1031.9 - 0.2 - - - - - - -
24/08:00am 9.8 CALM 0 0 1031.6 - 0.2 - - - - - - -
24/07:30am 8.1 N 1 2 1031.3 - 0.2 - - - - - - -
24/07:00am 7.4 WSW 1 3 1031.1 - 0.2 - - - - - - -
24/06:30am 7.4 CALM 0 0 1031.0 - 0.2 - - - - - - -
24/06:00am 7.1 CALM 0 0 1030.8 - 0.2 - - - - - - -
24/05:30am 6.6 CALM 0 0 1030.4 - 0.2 - - - - - - -
24/05:00am 6.5 CALM 0 0 1030.1 - 0.2 - - - - - - -
24/04:30am 6.3 CALM 0 0 1029.9 - 0.2 - - - - - - -
24/04:00am 6.5 CALM 0 0 1029.8 - 0.2 - - - - - - -
24/03:30am 6.5 CALM 0 0 1029.5 - 0.2 - - - - - - -
24/03:00am 6.2 CALM 0 0 1029.6 - 0.2 Recent precip. - - - - - -
24/02:30am 6.5 CALM 0 0 1029.5 - 0.2 - - - - - - -
24/02:00am 6.6 CALM 0 0 1029.6 - 0.0 - - - - - - -
24/01:30am 6.6 CALM 0 0 1029.7 - 0.0 - - - - - - -
24/01:00am 6.7 CALM 0 0 1029.6 - 0.0 - - - - - - -
24/12:30am 6.9 CALM 0 0 1029.8 - 0.0 - - - - - - -
24/12:00am 6.9 CALM 0 0 1029.7 - 0.0 - - - - - - -
 
Date/Time
EST
Temp

°C
Wind Pressure Rain
since 9am
mm
Weather Cloud Vis
km
Sea
Height
m
Swell
Dir
 
Speed
knots
Gust
knots
hPa Trend Height
m
Period
s
Dir
23/11:30pm 7.5 CALM 0 0 1029.9 - 0.0 - - - - - - -
23/11:00pm 7.6 CALM 0 0 1029.8 - 0.0 - - - - - - -
23/10:30pm 7.8 CALM 0 0 1029.7 - 0.0 - - - - - - -
23/10:00pm 8.0 CALM 0 0 1029.8 - 0.0 - - - - - - -
23/09:30pm 8.4 CALM 0 0 1029.8 - 0.0 - - - - - - -
23/09:00pm 9.0 CALM 0 0 1029.8 - 0.0 - - - - - - -
23/08:30pm 9.2 CALM 0 0 1029.7 - 0.0 - - - - - - -
23/08:00pm 9.7 CALM 0 0 1029.7 - 0.0 - - - - - - -
23/07:30pm 10.3 CALM 0 0 1029.6 - 0.0 - - - - - - -
23/07:00pm 10.4 CALM 0 0 1029.4 - 0.0 - - - - - - -
23/06:30pm 11.1 CALM 0 0 1029.2 - 0.0 - - - - - - -
23/06:00pm 11.9 CALM 0 0 1029.0 - 0.0 - - - - - - -
23/05:30pm 12.7 CALM 0 0 1028.7 - 0.0 - - - - - - -
23/05:00pm 14.5 WSW 2 3 1028.3 - 0.0 - - - - - - -
23/04:30pm 15.9 CALM 0 2 1028.2 - 0.0 - - - - - - -
23/04:00pm 17.5 WSW 1 3 1028.0 - 0.0 - - - - - - -
23/03:30pm 17.7 SW 3 7 1027.9 - 0.0 - - - - - - -
23/03:00pm 17.6 SW 4 10 1027.8 - 0.0 - - - - - - -
23/02:30pm 17.5 WSW 4 7 1027.8 - 0.0 - - - - - - -
23/02:00pm 17.4 SW 3 7 1027.8 - 0.0 - - - - - - -
23/01:30pm 16.9 SSW 3 6 1027.9 - 0.0 - - - - - - -
23/01:00pm 17.7 SW 4 7 1027.8 - 0.0 - - - - - - -
23/12:30pm 17.2 SW 6 11 1028.0 - 0.0 - - - - - - -
23/12:00pm 17.0 SSW 5 9 1028.4 - 0.0 - - - - - - -
23/11:30am 16.7 SW 4 10 1028.8 - 0.0 - - - - - - -
23/11:00am 16.1 SW 4 10 1029.0 - 0.0 - - - - - - -
23/10:30am 16.3 SW 6 13 1028.9 - 0.0 - - - - - - -
23/10:00am 16.0 SSW 5 11 1028.7 - 0.0 - - - - - - -
23/09:30am 15.5 SW 3 7 1028.6 - 0.0 - - - - - - -
23/09:00am 14.8 SW 4 9 1028.5 - 36.2 - - - - - - -
23/08:30am 13.3 SW 4 8 1028.2 - 36.2 - - - - - - -
23/08:00am 12.6 SW 4 8 1027.9 - 36.2 - - - - - - -
23/07:30am 12.3 WSW 3 10 1027.7 - 36.2 - - - - - - -
23/07:00am 12.1 WSW 3 6 1027.4 - 36.2 - - - - - - -
23/06:30am 12.0 SW 3 7 1027.1 - 36.2 - - - - - - -
23/06:00am 11.7 SW 4 8 1026.9 - 36.2 Recent precip. - - - - - -

Other Formats:

Comma delimited format used in spreadsheet applications
http://www.bom.gov.au/fwo/IDN60701/IDN60701.95767.axf

JavaScript Object Notation format (JSON) in row-major order
http://www.bom.gov.au/fwo/IDN60701/IDN60701.95767.json